This is the latest recevied weather packets stored in our database for station/object KU9TRY. If no packets are shown the sender has not sent any weather packets the latest 10 day(s).
| Time | Temp. | Humidity | Pressure | Rain* | Wind** | Luminosity | Snow |
|---|---|---|---|---|---|---|---|
| 1777751258 | 16.67° C | 39% | 1016.3 hPa | 0 mm | - | 75 W/m² | - |
| 1777750956 | 16.67° C | 36% | 1016.2 hPa | 0 mm | - | 88 W/m² | - |
| 1777750651 | 16.67° C | 37% | 1016.5 hPa | 0 mm | - | 128 W/m² | - |
| 1777750349 | 16.67° C | 37% | 1016.5 hPa | 0 mm | - | 188 W/m² | - |
| 1777750049 | 16.67° C | 38% | 1016.6 hPa | 0 mm | - | 142 W/m² | - |
| 1777749747 | 16.67° C | 36% | 1016.6 hPa | 0 mm | - | 75 W/m² | - |
| 1777749443 | 17.22° C | 37% | 1016.4 hPa | 0 mm | - | 67 W/m² | - |
| 1777749141 | 17.22° C | 35% | 1016.2 hPa | 0 mm | - | 136 W/m² | - |
| 1777748838 | 17.78° C | 32% | 1016.2 hPa | 0 mm | - | 174 W/m² | - |
| 1777748536 | 17.22° C | 38% | 1016.2 hPa | 0 mm | - | 168 W/m² | - |
| 1777748235 | 17.22° C | 34% | 1016.3 hPa | 0 mm | - | 143 W/m² | - |
| 1777747932 | 17.22° C | 35% | 1016.2 hPa | 0 mm | - | 160 W/m² | - |
| 1777747628 | 17.22° C | 35% | 1016.4 hPa | 0 mm | - | 172 W/m² | - |
| 1777747324 | 17.22° C | 36% | 1016.3 hPa | 0 mm | - | 188 W/m² | - |
| 1777747021 | 17.22° C | 34% | 1016.6 hPa | 0 mm | - | 203 W/m² | - |
| 1777746717 | 17.22° C | 34% | 1016.5 hPa | 0 mm | - | 161 W/m² | - |
| 1777746412 | 17.22° C | 35% | 1016.3 hPa | 0 mm | - | 139 W/m² | - |
| 1777746108 | 17.22° C | 34% | 1016.6 hPa | 0 mm | - | 195 W/m² | - |
| 1777745806 | 17.22° C | 36% | 1016.3 hPa | 0 mm | - | 173 W/m² | - |
| 1777745504 | 17.78° C | 36% | 1016.6 hPa | 0 mm | - | 163 W/m² | - |
| 1777745201 | 17.78° C | 36% | 1016.6 hPa | 0 mm | - | 173 W/m² | - |
| 1777744898 | 17.78° C | 40% | 1016.6 hPa | 0 mm | - | 184 W/m² | - |
| 1777744597 | 17.78° C | 34% | 1016.7 hPa | 0 mm | - | 137 W/m² | - |
| 1777744293 | 17.22° C | 37% | 1016.6 hPa | 0 mm | - | 185 W/m² | - |
| 1777743990 | 17.22° C | 33% | 1016.7 hPa | 0 mm | - | 234 W/m² | - |
* Rain latest hour (hover to see other rain measurements)
** Current wind speed in m/s (hover to see current wind gust speed)